Theta_e
320 324 326 325 326 326 325 324 324 325 327 326 327 326 325 325 325 324 324 324 325 325 327 326 326 327 327 328 329 331 331 332 332 332 332 333 334 336 339 340 337 338 337 338 340 340 339 338 339 338 337 336 336 336 336 334 335 333 333 333 333 333 332 331 330 329 328 327 327 326 325 324 323 323 322 321 319 319 319 318 318 318 318 317 317
316 319 323 324 325 325 323 323 323 324 325 324 326 325 324 324 324 324 323 323 323 323 326 325 326 326 327 328 329 330 332 332 331 331 331 333 334 336 339 339 337 336 336 336 339 341 340 338 338 337 337 336 336 335 332 335 335 334 333 333 332 331 330 329 328 327 326 325 325 324 323 323 322 321 321 319 318 318 317 317 317 318 318 318 317
314 315 320 322 322 323 321 321 321 322 323 323 324 324 323 322 322 323 322 322 322 322 323 324 325 325 327 327 328 330 332 332 332 331 331 333 334 335 336 338 336 336 337 336 337 339 339 335 335 336 336 336 333 334 334 333 334 333 333 331 330 329 328 327 326 326 324 324 323 322 322 321 320 320 319 318 318 317 317 317 316 315 315 316 317
313 313 318 319 320 319 319 319 319 320 321 321 321 321 321 320 321 321 321 322 320 320 321 322 322 323 325 325 327 328 330 331 330 330 331 333 334 335 335 335 336 337 337 337 336 337 337 335 336 335 335 334 335 334 332 335 334 333 331 329 328 327 327 326 325 324 323 323 322 321 320 319 319 319 318 317 317 316 316 316 316 316 317 316 317
312 313 317 315 317 317 316 318 318 319 318 319 319 318 318 318 318 320 320 320 318 318 319 320 320 321 322 324 325 326 328 330 330 330 330 332 334 335 334 332 332 335 337 337 336 335 334 333 335 335 334 335 334 334 332 333 334 331 329 328 327 326 325 324 324 323 322 322 320 319 319 318 318 318 316 316 315 315 316 319 317 316 316 317 317
312 312 313 314 314 315 315 315 317 317 316 317 316 316 315 315 316 317 319 317 316 317 318 317 318 319 320 322 324 325 326 328 329 329 330 331 334 333 332 332 333 334 334 335 336 335 334 335 335 333 335 335 335 334 333 332 333 331 330 328 326 325 324 323 322 321 320 319 319 319 319 318 317 315 316 316 316 316 316 318 316 315 316 315 315
313 312 312 313 313 314 314 315 317 317 314 314 314 314 314 313 315 314 316 315 316 317 316 316 316 316 317 321 322 324 327 327 328 329 329 330 333 332 331 331 331 331 333 334 335 334 334 334 332 335 335 334 335 334 333 333 332 330 328 326 325 324 323 321 320 320 319 319 318 317 316 316 315 315 317 316 316 316 317 316 316 316 314 316 318
313 313 312 314 312 313 313 315 316 316 314 313 314 312 312 312 312 314 313 313 315 314 316 315 316 316 317 318 320 323 325 326 327 328 329 329 331 332 331 330 329 328 332 331 332 333 332 332 333 332 332 333 334 333 332 332 331 330 328 326 324 323 322 321 320 319 318 317 317 316 316 316 316 316 315 317 318 316 316 315 315 316 315 317 318
313 313 313 314 312 313 313 314 316 315 313 312 311 312 311 310 310 312 313 312 313 313 314 315 315 316 316 317 318 321 321 323 326 328 329 328 330 331 331 329 329 331 332 329 331 332 331 332 332 333 332 332 331 331 331 332 330 328 327 325 324 323 321 320 319 318 318 316 315 316 317 316 315 315 318 317 316 315 316 319 319 319 319 319 318
313 313 313 316 313 313 313 314 314 314 312 310 310 311 311 310 309 310 312 312 312 312 313 314 315 315 315 315 316 318 318 321 325 329 328 327 329 330 329 329 329 330 330 329 329 329 330 331 331 330 331 331 331 330 330 330 329 326 326 325 322 321 320 318 317 317 316 315 316 316 314 314 315 317 317 315 314 318 319 318 318 318 318 319 318
313 313 313 315 313 312 312 312 313 313 310 308 308 310 310 309 308 308 311 311 311 312 313 314 314 314 314 314 315 316 318 321 325 327 328 328 328 329 329 328 328 327 328 328 328 329 330 329 330 329 330 331 330 329 329 328 326 325 325 324 321 320 319 318 317 316 316 317 317 314 313 316 317 317 315 315 318 318 317 317 317 316 316 317 317
312 312 312 315 312 312 311 312 311 312 309 306 306 306 307 306 306 307 307 309 310 311 312 313 313 312 313 313 314 315 317 321 323 324 326 326 326 328 328 327 326 324 326 326 326 327 327 328 328 326 328 329 330 329 327 325 324 324 324 322 321 320 318 317 316 316 317 316 313 314 316 315 316 316 316 317 317 316 316 316 316 316 316 316 316
313 312 312 313 312 311 310 310 310 311 310 306 306 307 307 307 306 307 307 305 307 309 312 312 311 310 311 311 311 316 318 320 321 323 323 325 326 326 327 326 325 324 325 325 325 324 324 324 324 324 326 326 326 327 325 324 323 323 322 322 320 320 318 317 317 318 317 314 312 316 315 316 316 315 315 314 315 314 315 315 315 315 314 316 317
312 313 312 311 309 309 308 308 308 308 310 307 307 308 305 305 305 304 306 305 305 308 310 309 307 306 305 306 310 311 315 319 320 321 323 324 324 324 325 325 324 322 322 323 322 321 321 320 320 319 320 321 322 323 324 324 322 322 321 321 320 318 317 319 317 315 313 313 316 315 316 315 314 313 314 315 314 315 316 317 317 317 317 316 316
309 313 311 309 308 307 307 307 306 308 307 304 304 304 304 304 304 304 303 305 306 308 308 309 305 308 308 307 304 303 308 314 317 314 316 318 323 324 324 323 323 322 321 320 318 317 318 317 317 317 317 318 319 320 322 322 322 321 320 320 319 318 318 318 315 314 315 315 314 316 315 314 315 315 314 313 315 318 318 317 317 317 317 316 317
309 310 312 308 306 305 305 305 304 306 307 304 303 303 303 303 304 305 304 301 303 305 308 308 309 306 301 303 303 305 302 305 307 311 315 318 321 323 324 322 323 322 320 317 317 316 315 315 315 316 315 316 317 319 320 322 321 321 320 319 318 317 317 317 316 316 313 313 314 315 313 315 316 314 313 316 318 319 319 320 320 319 318 317 317
309 308 309 308 306 304 304 304 303 303 307 304 302 302 302 303 303 304 303 302 302 303 305 308 307 310 305 302 302 301 301 304 307 307 316 315 318 321 323 323 322 319 317 316 315 315 315 314 314 314 314 315 316 316 316 317 319 321 319 318 316 316 316 315 315 316 315 314 313 315 315 316 314 314 318 319 320 320 319 319 319 319 318 318 318
308 308 307 309 305 304 303 303 303 303 306 304 302 302 302 302 303 303 302 304 303 302 302 307 308 308 310 308 303 300 301 304 304 301 311 315 316 320 322 321 321 318 316 315 314 313 315 314 314 313 313 313 313 313 314 315 317 315 317 316 317 316 315 316 316 315 313 313 314 315 315 315 317 318 319 319 318 318 318 319 319 318 318 318 317
307 307 306 307 306 304 303 302 302 302 306 303 301 301 302 302 304 303 303 305 304 301 302 303 306 307 308 309 309 309 308 303 301 304 301 310 315 316 319 323 321 318 315 314 314 313 313 313 312 312 312 312 313 313 314 316 315 317 317 316 316 315 315 314 312 313 316 315 315 316 317 318 319 319 319 318 318 318 319 319 319 318 318 318 318
307 306 305 305 306 304 302 302 302 301 306 302 301 302 302 303 304 303 304 305 304 303 302 303 302 303 307 307 307 308 309 308 308 304 303 301 305 314 319 320 321 317 314 314 314 313 312 312 312 312 311 310 311 312 312 312 313 316 315 315 316 315 313 314 313 313 315 318 317 318 318 318 318 318 317 317 317 318 319 318 317 317 317 317 317
307 306 305 304 305 304 302 301 301 301 305 302 302 302 303 303 303 303 303 304 305 305 304 303 304 303 304 305 306 306 307 308 308 308 305 303 304 307 310 315 312 312 315 314 313 313 312 311 312 312 312 311 310 310 311 312 314 316 315 315 315 313 312 314 315 317 318 318 319 318 317 318 317 317 316 317 317 317 318 318 318 317 317 316 316
305 305 304 303 303 303 302 300 301 302 304 302 302 303 303 303 303 303 304 303 304 304 304 305 305 305 305 305 304 305 305 306 307 307 307 308 304 306 308 309 307 307 312 311 311 312 312 312 310 309 309 309 309 310 311 313 314 315 314 314 313 314 314 317 317 316 316 315 316 316 316 317 317 316 316 316 318 319 318 318 318 317 317 317 317
304 304 303 302 302 302 302 300 302 303 303 302 302 302 303 302 302 303 303 303 303 303 305 306 307 306 306 306 305 305 304 303 304 305 306 305 306 307 308 308 305 305 307 311 311 311 310 309 308 308 308 308 309 311 312 315 315 314 313 313 313 314 314 314 314 314 314 315 315 316 315 316 316 316 317 319 320 320 319 317 317 317 317 317 317
303 302 302 301 302 300 301 301 301 301 302 303 303 303 303 302 302 303 303 303 304 304 304 305 306 308 309 310 308 308 307 307 307 308 307 307 307 306 307 304 304 303 306 306 308 308 308 308 309 309 309 310 310 313 314 314 313 313 312 312 313 313 313 314 314 314 315 315 315 315 315 316 317 317 319 319 320 319 318 317 316 316 316 317 317
302 300 300 300 301 300 300 300 300 301 303 302 302 303 302 302 302 302 303 303 304 304 304 306 308 309 309 311 311 309 309 310 310 309 310 309 309 306 305 305 301 301 303 304 303 305 307 308 310 311 311 310 310 310 311 311 312 311 314 313 311 312 313 314 314 315 315 315 315 315 316 316 317 318 319 319 319 319 317 316 316 316 316 316 317
301 300 300 300 300 300 301 301 302 302 303 302 302 302 302 301 302 302 302 304 305 306 307 309 310 310 311 310 309 309 310 310 310 310 310 308 309 308 302 302 303 300 303 304 305 304 305 308 310 309 309 309 308 308 308 310 311 311 311 311 312 312 313 314 315 314 313 314 315 316 316 317 317 319 319 318 317 316 316 316 316 315 315 316 316
301 301 300 299 299 300 301 301 302 302 302 301 301 301 301 301 302 303 304 305 306 308 308 309 309 309 310 310 309 309 309 309 310 311 312 312 310 310 303 299 300 302 301 303 302 302 301 304 308 307 307 308 307 307 307 308 310 310 309 307 309 310 310 309 309 311 312 313 314 316 316 317 317 318 317 315 315 315 315 315 315 315 314 315 316
302 301 299 299 299 300 301 301 301 301 301 301 300 300 300 300 302 303 303 306 306 308 308 308 308 309 309 310 309 308 309 308 309 311 314 313 313 313 306 303 299 296 300 299 300 300 305 303 305 305 307 307 306 306 309 309 310 310 308 306 304 307 309 307 306 307 309 312 314 316 316 316 316 316 315 314 313 314 314 315 314 314 314 315 315
301 301 299 299 299 301 300 300 300 300 299 300 300 299 300 300 302 302 303 305 307 307 308 307 307 307 308 308 308 308 309 309 309 311 314 314 314 313 307 305 303 299 298 297 299 299 301 303 301 302 305 305 305 304 305 305 310 306 305 303 303 306 307 306 304 305 307 309 310 313 315 315 315 315 314 313 313 314 314 314 314 314 314 314 313
301 300 299 299 299 301 300 300 299 299 299 299 299 299 299 299 300 302 303 304 305 306 307 307 306 306 307 307 306 307 309 309 308 310 314 314 314 312 309 308 308 302 300 297 296 301 300 302 302 300 302 303 302 303 301 301 310 304 302 301 302 307 307 306 305 304 304 304 306 307 310 313 314 314 314 312 312 313 314 314 313 313 312 312 310
301 299 298 298 299 299 299 299 298 298 298 298 298 298 298 298 300 301 303 304 304 304 305 305 305 304 304 304 305 306 308 308 309 312 317 316 313 310 309 309 309 305 302 299 296 300 303 300 301 302 301 301 301 301 299 300 306 301 300 301 303 306 306 306 304 304 303 303 304 304 306 309 311 312 312 311 311 312 313 312 311 310 309 308 308
300 300 299 299 299 298 298 298 297 297 297 297 298 297 298 298 299 300 302 303 303 303 304 304 304 303 302 302 304 305 308 309 309 310 313 315 312 310 310 309 308 307 304 301 298 297 302 303 301 299 300 300 300 298 299 300 306 303 302 300 304 304 304 305 304 303 303 303 302 302 302 304 306 309 310 310 309 309 310 309 308 307 307 307 306
302 300 299 299 298 298 297 297 296 296 296 296 297 297 297 297 299 300 301 302 302 302 303 302 303 302 301 302 303 305 308 308 309 310 311 314 312 311 310 308 307 307 304 301 299 298 301 303 300 298 299 300 297 298 298 300 301 304 303 303 303 303 302 303 304 304 303 303 303 302 302 302 303 305 308 308 306 305 307 305 304 305 306 306 305
300 300 300 300 299 297 297 296 296 295 295 296 296 296 297 297 298 300 301 301 301 301 301 301 302 302 301 301 302 305 308 309 310 310 312 313 311 310 309 308 306 306 305 302 300 298 297 300 298 299 299 300 297 299 299 300 301 303 304 305 305 304 302 302 303 304 303 303 303 302 302 302 302 303 305 306 303 302 302 302 303 303 304 304 303
299 299 299 299 298 297 296 296 295 295 295 295 296 296 296 297 297 299 300 301 301 300 300 300 301 301 300 301 303 306 308 310 312 312 314 312 311 309 308 308 306 306 305 303 300 298 297 298 299 297 299 300 300 298 299 302 304 304 303 304 304 306 305 303 303 304 303 303 302 302 302 302 302 302 303 303 302 302 302 302 302 301 302 301 301
298 298 299 298 298 296 295 295 295 295 294 295 295 295 296 296 297 298 299 300 300 300 300 299 300 300 300 301 303 306 309 311 311 311 311 310 309 309 308 307 305 304 305 305 303 300 299 297 299 297 299 299 299 300 302 302 302 303 304 305 306 304 303 302 303 303 304 303 302 302 302 303 302 302 302 302 302 302 302 302 302 302 301 300 300
297 297 297 297 296 294 294 294 294 294 294 294 295 295 295 296 297 298 299 299 299 299 299 299 300 299 299 300 304 306 309 310 310 310 310 309 309 308 306 306 305 306 305 304 302 301 299 298 298 300 300 300 301 303 303 302 303 303 304 304 304 303 302 303 304 304 303 302 302 302 303 303 303 303 302 303 302 302 302 302 302 302 301 300 300
297 296 295 294 295 293 293 294 294 294 294 294 294 294 295 296 297 298 298 298 298 298 298 299 298 298 298 300 304 306 307 309 310 310 309 308 308 307 306 306 306 305 303 302 302 301 300 300 301 300 301 302 302 303 303 304 303 303 303 303 303 302 302 302 302 303 304 303 303 303 303 303 303 303 303 303 302 302 302 302 302 302 301 300 300
296 295 295 294 294 293 293 293 293 294 293 294 294 294 295 295 296 297 297 297 297 298 298 298 297 297 298 299 303 306 306 307 309 310 310 309 307 307 307 306 305 304 304 303 302 301 300 300 300 301 301 302 303 303 302 303 304 302 303 304 302 301 301 301 300 301 302 301 302 303 303 303 304 304 303 303 303 303 303 303 303 303 302 301 300
295 294 293 293 293 293 292 292 293 294 293 293 294 294 294 295 296 296 297 296 296 296 297 298 297 296 297 298 301 305 306 306 307 309 311 311 310 309 310 307 305 304 303 302 301 301 301 302 301 301 301 303 305 304 304 303 302 304 304 304 303 301 300 300 300 301 301 302 301 301 302 303 303 304 304 304 304 304 303 303 303 303 301 300 300
295 294 293 293 292 292 292 292 292 293 292 293 294 294 294 295 296 296 296 295 295 295 296 296 296 295 295 296 298 303 307 309 309 308 310 312 311 309 309 307 305 303 302 302 302 302 302 303 303 303 304 304 303 303 304 305 304 303 303 303 300 300 299 299 299 301 301 300 301 302 301 302 302 303 303 303 303 304 303 303 303 302 301 300 300
293 294 293 293 292 291 291 291 292 292 292 293 295 295 295 295 296 296 296 294 294 294 295 295 295 294 294 295 297 304 306 307 306 305 303 306 310 311 310 308 306 304 304 303 303 303 304 303 303 304 303 304 303 304 304 303 302 303 303 303 300 299 299 298 299 300 301 301 302 301 301 302 301 303 303 302 303 303 302 302 301 301 300 299 299
292 292 292 291 291 291 291 290 290 291 291 292 293 292 293 294 296 295 294 294 293 293 294 295 294 293 293 294 295 297 301 303 301 303 303 303 303 304 305 307 310 308 305 304 305 306 306 304 303 304 304 303 304 304 304 304 304 303 303 303 301 300 300 300 299 299 302 301 301 300 300 302 301 301 302 302 302 303 302 301 301 300 300 299 299
292 291 290 291 291 291 291 290 290 291 291 293 291 292 292 292 295 295 294 293 293 292 293 294 294 293 292 292 293 294 295 299 299 299 304 305 303 304 304 304 302 299 301 307 308 307 306 305 305 305 305 305 303 303 306 305 305 303 302 302 302 302 301 301 300 300 301 303 301 300 299 302 301 302 301 302 303 303 302 301 301 300 300 299 299
291 290 290 290 290 291 291 289 290 290 291 292 291 292 292 292 292 295 294 293 292 291 292 293 294 293 291 291 292 293 293 299 298 297 300 304 307 308 307 307 307 304 297 296 300 309 307 306 305 303 305 306 306 307 308 306 304 304 303 304 302 301 302 302 300 299 300 302 302 300 298 300 301 301 301 302 303 303 303 302 301 300 299 299 299
289 289 289 289 290 290 291 290 289 290 290 291 291 291 291 291 291 293 293 293 292 291 291 291 293 294 292 290 290 291 292 293 294 295 299 301 305 305 305 305 305 306 304 301 301 303 307 307 307 308 307 307 308 308 309 306 308 306 305 306 302 303 303 301 299 300 301 302 303 300 299 299 301 301 300 302 303 303 303 302 300 300 300 299 299
289 288 288 288 289 290 290 290 289 289 290 291 290 291 291 291 291 293 293 293 292 291 291 291 292 294 293 291 291 290 291 292 294 295 297 299 302 304 304 303 305 305 305 304 302 306 310 310 309 308 308 308 308 308 307 306 307 307 308 307 304 303 301 301 302 301 300 302 301 302 298 299 301 301 300 301 302 302 303 302 301 300 300 299 299
289 289 288 289 288 288 289 290 289 288 289 290 290 290 291 291 291 292 292 291 291 291 290 290 291 293 294 292 290 290 290 291 294 293 296 298 298 300 302 302 303 304 304 305 299 298 304 305 306 305 304 302 300 302 303 305 306 306 306 304 304 304 303 302 300 300 300 302 302 301 299 299 301 300 300 302 302 301 302 302 301 300 300 299 299
288 288 287 288 288 288 288 289 289 288 288 290 289 290 290 290 291 290 290 290 290 290 290 290 290 291 294 293 291 290 290 290 292 290 292 296 295 296 298 300 301 302 301 301 301 298 296 296 296 296 296 296 297 296 296 296 300 305 307 305 303 302 305 302 300 299 299 300 301 302 301 299 300 300 301 301 301 300 300 301 302 300 300 299 299
286 287 288 287 288 288 288 287 290 288 288 290 289 289 290 290 291 289 289 289 288 288 289 290 289 289 292 298 295 290 289 290 290 290 291 294 292 292 294 296 297 298 298 299 305 308 301 299 298 297 297 297 297 298 297 297 298 302 306 305 303 303 303 302 301 300 300 301 301 302 302 299 300 298 299 300 302 301 301 300 301 301 300 300 300
287 287 289 287 287 287 287 287 291 289 288 289 289 289 289 290 290 289 289 288 287 287 288 288 288 289 289 293 295 292 291 290 289 289 290 293 291 291 292 293 294 294 295 296 306 305 306 305 305 305 302 303 304 303 303 300 300 302 301 302 304 306 304 302 301 300 300 299 300 301 301 299 300 297 298 300 299 301 301 300 300 300 300 301 301
Wind_Speed
7 6 6 7 6 7 6 6 6 6 7 7 6 6 7 6 6 6 7 7 7 7 7 7 6 6 6 8 7 6 7 6 7 7 6 6 5 6 11 13 12 10 9 13 16 15 14 14 14 14 14 11 11 11 11 12 11 9 8 9 12 13 13 12 12 11 11 11 11 10 9 9 9 8 8 7 6 4 4 3 3 2 3 3 4
6 6 6 7 6 6 6 6 6 6 7 7 7 7 7 7 7 7 8 7 7 8 8 7 7 7 7 7 7 5 6 7 7 7 6 5 6 6 10 12 11 12 11 12 15 15 14 13 11 12 10 9 10 11 6 7 9 11 15 16 14 13 13 13 12 12 11 10 10 9 9 8 7 7 7 5 4 3 2 3 3 5 7 7 6
6 6 6 6 6 6 6 6 6 7 7 7 7 7 7 7 8 7 8 7 7 7 7 7 7 7 7 8 8 6 6 6 7 7 6 6 6 6 6 10 12 15 13 12 13 14 12 9 9 8 10 7 6 9 11 10 15 16 16 15 14 13 13 12 11 11 10 9 9 8 8 7 6 5 5 4 4 4 4 4 4 2 3 5 6
6 6 6 6 6 6 6 6 7 7 7 7 7 7 7 7 8 8 8 7 7 7 7 7 7 7 8 9 8 7 6 7 7 7 6 6 6 6 3 5 13 15 14 13 12 12 9 7 8 9 9 9 11 11 12 17 18 17 16 15 14 13 12 12 10 9 9 8 8 7 7 6 5 5 3 3 4 3 2 3 4 6 9 6 8
7 6 6 6 5 6 7 7 6 6 6 8 8 8 7 7 8 8 7 8 8 9 9 7 8 9 9 9 8 9 6 6 7 7 7 6 7 7 5 3 5 13 15 12 10 8 8 10 9 5 8 11 11 14 14 17 19 18 16 15 13 12 11 11 11 10 9 9 7 6 5 5 4 4 2 2 1 1 4 9 7 7 7 9 9
7 7 6 6 6 6 6 7 6 7 6 7 7 7 7 7 7 7 9 8 8 8 8 9 9 9 8 8 8 8 7 6 6 7 7 6 6 5 5 5 6 7 7 10 8 8 9 11 10 12 12 15 16 18 16 18 19 18 17 15 13 12 12 12 11 10 9 8 7 5 6 5 3 2 2 3 4 7 7 7 8 8 8 8 8
7 6 6 6 6 6 7 6 6 7 7 7 6 7 8 8 6 7 7 6 7 8 8 7 9 11 9 8 8 8 7 6 7 7 7 7 6 6 6 5 4 5 4 2 6 8 8 10 8 16 16 16 16 16 17 18 17 17 15 13 12 12 12 11 11 10 9 8 7 5 3 3 3 1 6 5 4 5 8 7 8 8 8 9 10
8 7 7 6 6 6 6 7 8 7 7 7 7 8 7 8 8 6 6 8 8 8 7 8 8 10 10 9 8 8 8 7 8 7 7 6 7 7 6 5 4 3 4 3 2 6 10 11 15 12 14 13 16 16 16 18 18 16 13 12 12 11 11 11 10 9 8 6 6 4 3 1 2 5 4 7 8 7 7 8 7 8 8 8 9
8 8 6 7 7 7 7 8 7 7 7 7 7 7 7 7 9 8 5 6 7 9 8 8 9 9 9 10 10 9 9 8 7 6 7 7 7 7 7 6 6 7 3 4 5 4 6 13 13 16 16 15 13 15 17 19 17 15 13 13 12 11 10 10 8 7 8 7 3 4 6 6 3 4 8 7 7 7 9 10 10 10 10 9 9
8 8 7 7 6 6 7 8 7 7 7 7 7 7 8 8 9 10 8 6 7 8 9 9 9 9 9 10 11 9 9 9 7 7 6 7 7 8 6 4 4 4 4 4 5 7 4 6 15 13 15 15 15 15 18 17 16 15 14 13 11 11 10 9 8 8 6 3 5 7 6 4 6 6 6 7 7 10 8 8 9 9 9 9 9
8 8 7 7 7 7 7 8 7 7 7 8 8 8 8 9 8 9 9 8 7 7 8 9 10 8 8 10 10 11 9 9 6 5 5 7 8 8 7 4 2 2 2 3 3 5 7 6 5 7 9 16 15 17 16 15 15 14 14 14 11 11 10 9 9 8 6 7 7 5 2 6 8 7 6 7 8 8 10 11 12 13 12 13 12
8 8 8 7 7 7 8 8 8 7 7 9 9 8 10 11 12 12 11 11 8 6 8 9 9 9 9 10 10 8 10 9 7 6 5 7 7 6 7 4 1 4 5 5 6 8 7 7 6 8 7 13 18 16 17 16 14 14 14 13 12 11 10 9 8 6 7 8 5 4 8 7 7 5 7 7 8 10 11 12 11 11 12 11 12
8 7 8 8 7 7 8 8 8 7 7 8 8 8 9 8 8 8 10 10 9 8 7 9 9 8 9 12 13 8 9 9 6 5 5 5 4 5 5 2 3 4 6 8 6 4 6 7 7 6 8 8 11 18 17 15 13 14 14 13 12 12 11 9 7 9 8 5 3 7 7 6 6 8 9 10 10 11 10 10 11 11 10 11 11
8 7 8 9 9 9 9 9 9 8 7 7 8 8 8 8 8 9 9 8 8 9 8 11 5 9 10 10 8 11 6 6 2 5 5 6 6 5 5 2 3 3 4 6 6 4 6 5 6 7 7 7 7 6 7 8 10 13 11 12 12 11 9 11 10 7 5 5 8 8 6 6 8 8 8 8 8 9 11 11 12 11 11 10 11
10 9 8 9 9 8 8 8 8 8 7 10 9 10 8 9 10 8 10 8 8 6 8 8 9 10 10 7 8 9 9 5 3 10 10 9 5 5 4 2 5 5 6 6 8 6 6 7 9 7 6 7 6 6 6 6 8 12 11 12 12 10 10 10 9 7 8 9 6 6 5 7 7 7 7 8 9 10 10 10 10 10 10 11 11
9 9 7 8 9 9 8 8 8 8 6 8 10 10 10 10 10 10 9 10 9 9 9 7 6 10 8 6 8 7 8 5 10 11 9 6 5 5 4 3 4 4 5 2 9 9 8 10 9 7 5 7 6 7 6 6 11 12 11 11 11 8 9 10 8 9 6 6 8 6 5 7 8 7 7 10 10 10 11 12 12 13 13 12 12
8 9 9 8 8 9 9 9 9 9 7 9 9 9 8 8 9 8 10 8 10 8 9 8 7 6 8 7 5 3 5 8 11 11 2 8 7 5 5 5 5 6 6 3 4 10 11 9 8 7 5 6 7 7 6 7 6 5 9 12 9 7 8 6 7 7 9 9 6 7 8 8 7 7 10 11 11 12 12 12 13 13 13 14 14
9 9 10 9 9 10 10 10 10 10 8 9 8 10 12 13 11 9 10 10 8 9 9 8 8 8 6 7 7 8 9 9 7 8 7 5 6 4 4 6 4 7 7 8 8 9 9 9 7 8 6 6 6 7 7 6 6 6 5 8 13 11 9 8 9 9 4 7 8 7 6 7 9 11 12 13 13 14 14 14 14 14 14 14 14
9 9 9 10 10 10 11 10 9 10 10 10 12 13 13 12 12 11 9 8 10 9 10 10 9 6 6 7 8 8 9 7 6 7 11 2 2 5 5 4 5 9 12 9 10 12 9 9 9 7 6 6 6 6 6 6 8 9 13 13 12 11 11 10 9 5 10 9 7 6 8 10 13 15 15 14 13 14 15 14 13 14 15 15 15
8 10 10 11 11 11 11 11 10 11 11 11 11 11 11 12 13 13 9 8 11 9 10 10 9 9 8 9 9 9 8 8 9 9 9 11 11 3 2 4 3 5 8 10 10 11 10 9 9 7 6 6 6 5 5 5 4 7 7 13 13 12 12 11 7 7 9 10 9 9 11 13 14 14 14 15 16 16 15 14 13 13 13 13 14
9 10 10 10 11 11 11 12 11 12 10 11 11 12 12 11 11 11 10 11 9 10 9 9 9 9 8 8 8 8 8 7 8 8 7 7 8 7 6 4 6 7 6 7 7 8 8 10 9 8 6 5 5 6 5 5 5 6 9 13 12 12 8 8 9 12 12 12 12 13 12 12 14 14 16 16 16 16 16 14 13 14 14 14 14
9 10 10 11 11 12 11 13 13 13 12 11 11 11 11 12 12 11 11 11 10 9 9 9 9 10 9 8 9 7 8 7 5 6 6 6 7 6 7 7 3 5 8 9 7 5 7 7 9 8 6 5 5 5 5 5 5 5 10 13 11 9 11 14 13 14 15 12 11 10 12 13 15 17 17 16 16 16 16 15 16 16 16 15 16
8 9 11 12 11 12 12 14 13 13 12 10 9 10 11 10 12 12 11 12 10 10 10 11 9 9 10 7 7 8 7 7 8 7 5 6 7 6 6 6 5 7 8 10 7 4 5 7 9 9 5 5 4 5 6 6 8 10 13 11 11 12 11 12 14 13 12 12 11 12 13 15 18 18 18 17 18 18 18 17 17 16 17 17 16
9 9 11 12 11 11 12 13 12 10 10 9 9 11 11 11 11 10 11 11 9 12 10 11 12 9 9 7 6 6 7 8 7 5 6 6 7 8 3 5 6 6 7 12 11 7 3 8 8 6 5 4 3 4 5 6 8 13 8 10 10 11 10 11 11 11 13 12 13 15 16 18 19 19 19 18 18 18 18 17 16 16 16 17 17
10 11 11 13 10 10 11 11 9 9 9 9 11 11 11 11 11 12 10 10 9 9 11 11 12 9 9 7 6 6 6 7 7 7 6 7 6 3 5 5 5 5 6 7 7 5 6 7 6 5 4 3 3 5 5 6 5 9 7 6 10 9 11 11 10 12 13 13 15 16 17 19 19 19 19 19 20 21 20 18 18 17 17 16 18
9 10 10 10 9 9 10 8 8 9 11 12 12 12 12 11 10 9 10 8 8 12 11 12 10 12 9 8 8 7 7 7 7 6 7 7 4 4 7 6 3 6 5 6 5 5 7 5 4 4 4 2 3 5 6 5 5 9 9 7 11 15 13 12 13 13 14 15 15 16 17 19 20 20 19 20 20 19 20 19 18 16 16 17 18
9 8 10 11 12 12 11 9 10 11 12 11 11 13 13 9 8 9 7 9 10 10 10 13 12 13 13 10 9 7 7 7 6 7 6 6 7 4 11 11 5 5 7 4 8 9 3 2 3 3 3 2 3 4 4 4 6 10 8 7 7 13 13 13 13 13 14 15 16 16 17 19 21 20 19 19 19 19 19 18 18 17 16 17 19
7 9 10 10 12 12 10 10 11 11 12 12 12 11 11 11 9 9 10 8 11 13 11 12 13 14 12 11 8 8 6 7 6 6 5 6 6 3 8 11 13 8 8 9 6 3 3 2 3 3 2 2 3 3 4 5 4 10 7 6 6 6 11 10 11 12 13 15 16 16 17 20 21 20 19 19 19 19 19 18 18 17 17 19 21
8 8 10 10 11 11 9 10 11 12 13 13 12 11 11 9 9 11 11 13 11 12 11 12 12 12 11 13 9 8 9 9 7 5 4 6 6 6 10 11 12 14 10 6 4 3 3 3 1 2 1 2 2 3 3 3 5 6 4 5 5 5 8 10 10 10 11 13 15 16 17 20 20 19 19 19 19 19 19 19 18 18 20 21 21
8 8 9 11 11 12 10 11 11 12 13 12 13 12 12 10 11 9 10 11 12 11 11 11 12 11 12 10 11 9 9 9 9 8 4 4 4 6 8 4 4 13 12 11 5 2 4 1 1 1 1 1 1 2 3 3 5 6 4 5 5 5 9 8 8 8 10 12 14 15 17 19 19 19 20 20 20 20 20 20 20 21 21 21 21
9 9 10 10 11 11 10 11 11 12 13 12 13 13 12 10 11 10 11 12 11 12 12 12 11 12 12 12 11 10 9 9 8 6 3 3 6 8 7 6 3 10 15 13 9 2 1 3 2 1 3 1 1 2 3 3 4 5 4 4 4 8 7 6 6 7 9 12 14 15 18 19 19 19 19 20 21 21 21 21 21 21 21 20 20
7 9 9 10 11 12 12 11 13 13 13 13 12 11 10 9 9 10 11 12 13 13 13 12 11 12 13 13 13 11 10 8 9 8 5 6 8 8 8 7 8 5 12 12 13 9 3 1 2 3 4 3 2 2 2 1 4 6 4 4 4 6 3 3 6 7 10 11 11 13 16 18 18 19 20 21 22 22 22 22 22 20 19 19 19
8 9 11 10 12 11 11 12 12 13 13 13 12 11 10 11 10 10 11 12 13 12 13 14 14 14 14 13 12 12 10 9 8 6 4 8 9 8 8 9 9 3 12 11 12 7 2 2 3 3 3 4 2 1 2 1 2 3 4 3 3 3 3 2 3 7 9 10 11 13 14 14 17 19 20 21 21 21 21 20 20 20 19 19 19
9 9 10 9 11 12 11 11 12 12 13 13 13 12 11 11 11 9 11 13 14 15 13 14 15 14 14 14 13 12 10 8 7 6 3 10 9 10 8 9 9 6 11 11 9 7 6 3 4 4 3 2 3 1 1 0 2 2 3 3 2 2 2 2 2 4 10 12 13 14 13 12 13 16 19 19 18 17 16 18 19 20 19 19 18
9 10 10 10 12 12 11 11 12 14 14 13 12 12 12 13 12 11 12 13 14 14 15 16 15 15 16 15 15 14 9 10 11 9 11 11 10 11 10 8 9 6 8 11 9 6 7 4 3 4 2 2 2 1 2 2 2 2 2 2 2 2 2 2 3 4 9 12 14 13 14 12 14 14 15 17 17 16 15 16 16 17 19 18 17
9 9 10 11 11 12 12 13 14 14 14 13 13 11 11 13 13 13 13 14 13 13 13 15 16 16 16 16 17 16 14 13 13 13 12 11 10 10 10 8 8 8 7 7 5 7 4 6 3 3 1 2 2 2 2 2 1 1 2 1 2 3 2 3 4 4 8 13 13 13 13 12 13 14 15 16 16 16 15 16 16 16 17 16 16
9 9 10 11 11 12 12 13 13 13 13 14 14 14 12 11 11 12 13 13 13 12 13 14 15 14 15 14 15 15 14 13 13 12 11 11 9 9 8 7 8 6 5 5 6 5 6 7 4 3 3 3 1 1 1 1 0 1 3 3 3 4 5 4 4 5 8 9 11 12 12 11 13 13 15 15 16 16 16 15 15 15 15 16 16
9 9 10 10 11 12 13 12 12 13 13 12 13 13 11 12 12 12 12 13 12 12 12 13 16 15 15 16 16 16 16 14 13 11 11 11 10 9 9 7 7 7 7 7 6 7 7 6 4 4 4 2 2 2 1 1 0 1 3 4 5 4 4 5 4 4 4 5 7 7 8 9 11 12 14 14 15 16 16 15 15 15 16 16 16
9 10 11 11 11 12 13 12 12 12 12 13 14 13 13 14 12 13 13 13 12 10 11 13 14 15 15 15 15 15 16 14 12 11 9 10 9 9 7 7 7 7 7 6 6 7 6 5 5 4 3 1 1 2 2 1 1 1 2 1 4 4 4 4 4 3 3 4 7 10 10 9 12 11 10 13 16 17 16 15 16 18 17 17 16
10 11 11 11 10 10 11 11 12 12 13 14 16 16 13 12 11 12 12 14 13 12 12 12 14 14 15 15 15 15 14 14 13 10 10 7 8 8 5 6 7 8 7 6 6 6 6 5 4 3 2 2 2 1 0 1 1 1 1 1 3 2 3 3 2 2 2 3 4 5 6 7 8 9 10 14 18 18 18 15 16 16 17 16 16
9 10 10 10 11 11 11 11 12 12 12 14 13 15 14 13 12 12 12 14 14 13 12 12 14 15 15 15 15 15 18 23 25 20 18 12 7 7 5 6 7 8 7 6 6 6 4 5 4 3 3 4 3 3 4 2 2 2 1 2 4 3 3 3 2 1 1 2 3 6 7 7 6 8 9 10 11 14 13 16 13 15 17 15 15
8 9 9 9 9 10 11 11 11 10 12 11 20 24 20 14 11 9 10 13 14 14 13 14 14 14 13 14 15 25 25 24 23 19 18 16 15 9 6 5 7 7 6 7 6 5 5 4 3 2 3 1 2 2 2 2 1 1 3 4 4 2 3 3 1 1 1 0 4 8 7 6 6 8 9 10 9 10 8 9 10 12 15 15 15
9 9 9 10 10 10 11 11 11 11 11 15 25 21 21 22 14 10 11 12 13 14 14 13 13 14 13 12 11 17 19 21 17 20 17 17 14 15 15 14 10 5 7 7 5 4 3 3 1 2 1 1 3 2 1 2 1 1 3 3 5 3 2 2 1 0 2 0 3 6 7 6 5 7 8 8 9 8 9 9 15 16 16 16 15
9 8 9 10 9 9 9 10 10 12 12 23 22 22 21 21 19 11 10 10 12 14 14 13 13 13 14 13 12 10 11 17 13 13 13 16 16 16 17 16 15 14 10 4 4 3 3 3 3 2 1 1 2 3 2 1 1 2 2 4 3 3 2 1 1 1 2 1 3 5 6 5 4 6 7 8 8 7 8 12 15 16 16 16 15
8 9 9 9 11 10 10 11 12 12 11 24 21 22 21 21 20 14 9 11 12 13 14 14 15 16 14 12 12 12 11 23 17 13 10 11 12 16 17 16 15 17 15 15 10 1 4 4 4 3 2 1 3 2 1 1 1 3 2 1 1 0 0 2 2 1 2 2 3 5 6 4 4 5 7 7 7 7 8 11 15 16 16 17 17
8 8 8 10 10 10 10 11 10 11 14 22 21 22 21 20 18 12 9 10 11 12 13 13 13 15 16 15 12 12 12 13 14 13 10 10 9 11 12 11 12 14 15 14 13 10 5 5 5 4 1 1 3 2 2 2 2 2 2 1 1 3 3 2 1 1 2 1 2 3 4 5 4 4 6 7 6 7 7 10 13 15 16 18 17
8 8 9 9 10 10 11 9 10 10 12 25 21 23 21 20 18 11 9 9 9 11 11 12 13 15 16 15 14 11 12 12 16 18 11 10 9 10 10 11 9 8 9 11 8 6 4 4 5 5 4 4 3 4 3 2 0 1 1 2 3 4 5 4 5 4 3 1 2 2 3 3 3 4 6 6 6 7 7 8 13 14 15 16 16
6 6 7 7 9 11 11 10 11 11 13 25 23 23 22 19 17 10 9 10 10 10 12 13 13 13 15 16 15 14 14 15 23 23 18 9 10 11 10 11 9 8 9 8 10 10 8 7 6 6 6 7 9 8 7 5 4 3 6 6 5 4 4 3 3 1 1 0 2 2 2 3 2 3 5 5 6 7 7 7 10 14 14 15 16
7 7 8 7 7 9 11 11 11 11 12 22 23 23 22 20 13 9 10 9 10 11 11 11 11 12 16 17 15 15 15 17 22 21 21 14 9 10 11 10 9 8 10 9 10 8 9 12 14 13 12 13 15 16 16 14 8 3 1 4 3 1 3 2 1 1 1 0 1 1 2 3 0 2 4 5 5 6 7 8 8 10 13 13 14
8 8 7 7 8 9 12 12 12 10 10 18 24 22 22 20 15 9 8 8 10 11 10 11 10 10 15 27 24 18 17 17 21 22 21 15 12 11 10 8 10 10 10 9 6 7 7 13 15 14 17 16 14 15 16 15 15 9 3 1 1 2 3 1 1 2 1 1 2 1 1 2 3 2 1 2 3 6 7 8 8 9 11 10 12
7 6 7 6 7 8 9 10 16 13 10 14 23 22 23 22 15 9 8 8 12 12 10 11 10 10 11 16 26 23 20 20 22 22 23 17 11 10 8 7 9 10 8 9 8 8 9 10 11 11 13 13 11 9 10 17 16 12 7 5 1 2 2 2 2 0 1 3 3 3 1 2 3 1 2 1 3 3 6 8 9 8 8 8 8
Wind_Direction
2 357 351 3 357 359 357 358 356 355 351 351 350 342 342 337 335 332 334 331 328 326 324 321 318 318 319 313 318 310 300 283 261 255 248 245 246 252 257 260 261 263 229 236 243 237 226 227 239 234 235 228 228 224 209 193 201 182 192 159 134 125 119 117 120 119 115 108 110 110 106 107 106 108 104 97 84 75 64 53 36 349 314 319 309
358 353 2 355 355 355 359 354 353 350 353 351 347 345 339 337 336 335 335 332 330 329 327 318 320 319 321 318 315 310 302 281 266 261 254 248 250 248 251 256 266 263 245 233 244 237 233 226 225 242 249 230 227 219 198 198 152 146 134 121 119 122 123 122 119 116 113 112 113 113 111 110 111 105 104 91 72 76 48 11 352 348 347 340 334
4 356 357 353 352 356 357 348 355 354 351 349 346 347 343 340 339 335 336 331 330 326 326 321 322 322 323 319 315 313 306 291 265 262 257 253 251 251 244 247 261 261 248 231 241 244 238 235 234 221 227 230 194 236 164 159 142 131 115 121 122 124 124 123 123 119 119 116 113 111 112 109 111 102 89 77 71 54 38 11 4 359 307 316 310
5 358 3 355 354 356 354 1 356 351 352 351 348 347 345 340 336 340 335 332 331 331 330 330 325 323 321 319 317 315 309 300 278 261 258 254 249 245 229 234 248 251 247 238 226 242 249 253 232 214 197 202 180 168 156 141 128 121 125 128 132 130 128 125 123 122 119 122 115 108 105 111 109 97 71 73 66 46 3 296 293 337 340 320 322
357 2 357 359 356 358 1 360 353 350 351 350 349 347 346 346 342 341 339 344 339 340 338 336 331 327 324 319 318 313 308 299 289 266 256 253 246 244 241 223 277 266 249 243 232 226 212 231 229 206 182 157 159 143 149 136 121 124 124 125 126 126 125 122 118 116 111 107 108 108 109 105 89 69 48 43 74 46 333 21 0 346 340 332 333
3 357 1 0 359 2 359 357 347 350 350 354 352 348 346 344 343 338 344 344 340 333 338 337 333 325 324 321 315 310 308 300 290 277 259 253 247 247 245 241 223 238 246 237 233 182 169 200 199 175 178 154 154 149 148 131 129 130 127 123 123 124 121 116 113 112 111 106 108 107 93 82 84 64 23 339 340 351 359 358 348 330 333 326 313
3 2 356 5 1 357 357 349 346 352 355 352 351 348 350 343 342 340 332 338 334 333 336 330 329 326 321 322 316 312 309 302 298 286 269 257 247 241 243 245 248 237 262 254 196 162 173 165 184 163 150 146 144 141 139 129 130 126 125 126 122 123 119 115 111 107 102 100 95 101 110 91 75 251 28 6 337 326 0 350 341 340 330 319 325
1 3 0 2 4 358 352 348 351 351 351 349 352 354 346 342 339 341 335 333 333 330 331 329 327 323 318 317 316 313 308 305 301 292 272 260 250 242 242 240 250 9 236 125 95 156 152 152 151 148 137 157 147 147 146 130 129 129 125 124 124 121 119 117 117 108 102 100 102 101 100 175 28 31 330 1 2 344 349 326 320 314 320 312 316
359 1 2 360 4 1 354 353 351 352 348 347 351 347 347 344 336 339 339 324 326 324 326 327 325 319 314 312 314 316 307 302 294 277 273 260 257 251 241 232 208 206 205 152 152 111 174 164 159 154 155 150 152 151 142 129 129 126 124 122 124 121 118 115 112 119 107 99 121 78 62 43 9 332 19 17 357 335 330 338 340 338 333 333 325
359 359 2 3 5 3 351 354 348 351 349 347 348 344 346 348 337 332 333 333 326 330 325 324 321 317 310 311 313 314 305 299 288 283 259 254 257 254 248 249 223 203 201 154 146 133 150 163 148 148 153 154 150 153 133 130 130 123 122 123 122 121 116 121 114 100 109 110 86 61 43 346 28 31 8 353 328 345 339 338 342 337 330 331 325
358 0 5 5 3 1 2 353 351 351 353 350 349 346 346 342 335 327 326 326 325 320 324 320 319 312 306 307 310 307 300 294 284 266 260 257 259 256 258 248 250 258 235 152 119 139 145 158 180 159 147 144 160 144 130 124 125 127 127 130 126 122 119 108 108 109 110 82 62 35 356 41 33 14 349 350 358 339 343 340 337 332 326 318 315
1 357 12 10 10 4 359 358 356 348 355 353 347 347 350 347 342 339 335 331 333 335 329 333 318 317 314 309 301 297 301 297 293 285 268 271 262 262 256 237 205 145 168 92 158 175 167 161 162 151 145 159 145 136 128 125 129 127 124 124 127 118 109 114 111 124 99 76 44 38 46 26 15 355 357 352 344 344 341 337 325 322 319 316 312
0 4 15 13 11 3 4 358 351 346 351 350 337 340 351 346 336 332 338 335 328 337 334 335 315 316 328 325 318 313 303 292 311 323 314 296 275 260 264 225 194 179 136 173 162 145 155 147 141 130 134 130 127 126 127 130 127 127 131 127 120 113 115 118 104 82 72 47 40 51 35 34 16 16 357 347 342 339 321 322 322 319 316 315 323
2 7 20 17 9 5 4 357 351 345 345 339 342 346 345 347 346 338 346 335 320 326 340 342 338 337 328 320 311 317 302 300 14 356 332 293 271 263 246 216 103 124 146 151 128 106 112 104 84 89 90 93 86 73 107 126 128 133 134 129 122 117 113 93 88 81 89 81 57 47 47 1 8 1 358 341 330 322 330 330 333 332 330 324 322
9 9 22 15 8 3 358 349 350 343 341 348 346 348 350 350 352 346 339 334 319 326 346 352 323 327 312 295 325 335 329 345 328 331 330 309 294 284 258 200 142 156 150 137 119 109 89 86 86 89 89 85 89 95 98 105 131 138 133 125 123 119 105 96 98 111 78 57 53 50 21 17 4 7 355 334 338 342 336 336 333 332 328 324 318
11 10 10 18 10 2 352 352 348 347 342 348 346 346 346 349 345 344 343 333 338 330 338 334 328 333 334 328 305 305 310 329 335 318 312 319 315 291 280 233 161 157 109 157 137 116 100 93 96 84 73 83 89 92 96 94 115 112 112 113 109 107 107 100 94 76 66 67 52 47 23 18 6 0 339 351 349 348 341 342 341 340 333 323 317
11 14 9 10 7 2 357 352 351 350 342 354 348 341 332 331 336 338 345 336 330 327 324 331 327 320 304 317 312 287 316 310 331 307 345 346 314 300 299 271 185 139 113 98 104 111 111 106 107 94 88 83 86 85 75 72 75 68 101 107 109 110 101 93 87 83 70 60 48 31 23 13 3 354 4 358 351 348 345 342 339 333 328 324 321
13 10 9 4 5 2 0 356 352 349 342 355 342 338 343 345 344 339 337 337 331 322 317 322 319 307 298 303 293 292 307 314 319 305 333 293 307 330 301 277 163 130 127 140 122 105 101 103 106 101 91 90 94 86 84 80 79 91 80 98 94 91 86 75 75 75 93 79 50 34 28 26 12 12 2 0 357 352 343 339 339 337 331 325 321
10 10 7 2 5 3 360 355 350 348 345 357 349 348 343 343 340 339 332 328 334 322 320 318 316 305 301 285 285 290 296 307 304 313 310 323 349 334 324 307 217 157 146 140 128 123 126 122 113 101 92 90 88 93 93 101 112 114 108 104 99 94 85 80 83 73 56 61 52 39 35 28 20 11 3 356 352 347 349 348 350 350 344 338 330
7 10 8 4 2 360 359 354 352 348 353 355 348 343 341 340 343 339 326 328 327 316 312 313 315 312 308 301 291 285 276 277 272 278 288 300 309 308 268 327 307 133 143 137 132 129 123 113 112 105 94 84 85 86 89 93 83 88 97 108 104 99 96 93 87 67 69 62 56 44 35 25 16 10 359 349 349 347 354 350 351 346 343 340 334
8 7 6 4 2 357 358 356 353 352 356 348 342 337 328 324 333 335 328 325 321 318 308 305 307 301 306 298 290 286 282 264 272 270 271 286 294 311 325 48 46 29 105 84 92 107 116 118 113 104 95 87 84 84 95 91 75 96 111 107 104 99 109 115 91 72 64 54 46 36 28 17 13 8 2 358 352 346 349 350 348 347 345 342 333
3 6 3 4 359 359 0 358 357 352 352 339 328 322 332 338 333 325 321 321 318 311 306 300 297 294 290 282 289 291 287 283 265 278 283 260 277 306 322 309 27 2 79 78 61 72 101 100 99 92 86 79 70 82 85 84 86 85 105 104 109 119 98 81 71 64 51 48 44 35 29 17 10 9 3 357 351 355 2 3 356 350 349 343 336
3 2 6 360 359 1 2 0 359 356 341 327 318 330 340 335 330 325 323 322 313 308 309 308 306 303 304 293 279 279 284 293 289 287 282 289 302 302 316 37 78 94 77 77 67 53 79 91 95 87 81 91 103 93 91 96 95 103 106 107 104 95 95 74 64 67 60 50 42 34 26 18 13 7 6 6 5 9 9 5 358 354 347 344 341
7 6 3 359 359 357 357 358 351 333 329 323 314 337 340 336 333 331 328 316 312 321 311 309 314 318 332 330 297 267 261 259 266 253 265 273 275 284 323 96 63 62 86 85 51 15 29 81 78 89 89 86 84 103 94 83 102 106 102 104 99 93 90 88 76 65 57 44 37 32 23 18 14 8 13 9 12 11 10 6 357 353 350 349 349
10 6 360 358 351 352 352 350 331 324 319 325 338 339 346 338 336 333 321 315 318 315 316 314 320 321 330 330 319 306 284 262 255 259 259 262 274 329 74 79 111 92 67 77 82 32 20 51 61 61 64 71 87 84 80 78 88 110 83 85 83 88 91 82 73 60 50 42 35 28 22 19 12 13 15 12 10 11 6 4 1 0 356 352 351
8 7 354 349 350 346 339 328 322 322 338 340 341 345 343 337 333 326 317 310 312 327 323 325 328 329 324 333 338 331 329 328 305 267 251 255 253 184 111 81 77 108 102 84 97 85 16 10 33 67 67 53 71 75 77 90 90 104 76 59 51 51 54 66 65 59 48 38 32 26 22 17 13 16 17 13 10 5 5 2 1 1 358 356 349
8 359 355 352 350 350 343 337 339 338 344 342 346 345 338 323 322 316 314 328 330 330 332 332 332 334 333 336 337 336 335 322 309 292 257 242 242 185 133 121 93 91 99 78 85 78 129 320 359 48 57 78 61 69 72 68 101 99 74 61 51 57 59 58 54 49 41 32 26 22 19 17 15 17 17 12 7 5 0 1 3 6 2 355 350
3 4 358 351 346 345 344 347 347 345 344 342 343 340 333 327 324 339 336 334 333 339 338 333 335 335 332 331 340 343 333 324 311 292 252 242 234 192 154 137 132 121 106 94 80 85 40 47 350 22 3 40 36 54 69 80 84 96 78 61 65 56 60 59 55 49 38 29 23 19 17 17 16 18 15 13 8 2 2 6 7 8 6 357 353
9 4 355 348 345 342 342 348 351 349 345 344 343 338 334 330 334 334 339 341 336 341 338 336 336 335 334 337 339 338 339 338 317 291 252 203 218 168 162 154 136 131 124 109 102 115 38 16 43 325 358 15 34 21 48 48 80 89 78 74 76 74 66 62 60 55 43 36 27 22 18 16 17 18 16 13 6 3 7 11 12 12 7 358 354
13 0 353 349 344 346 349 354 354 354 349 342 345 342 339 338 335 338 338 335 339 342 343 337 338 338 333 337 341 341 336 335 331 299 253 205 175 157 151 115 127 132 127 125 108 30 132 205 165 212 308 53 23 55 42 38 77 98 83 80 80 77 75 74 70 60 50 42 35 28 22 20 19 18 17 12 8 8 12 14 14 10 4 359 357
11 1 356 351 353 351 350 354 357 353 348 346 347 348 343 338 339 340 339 339 344 342 344 344 339 339 339 338 341 336 337 339 316 336 358 103 113 119 115 124 38 129 126 125 121 18 94 175 226 101 112 88 73 76 65 45 74 93 81 77 72 75 75 80 83 72 59 51 44 37 31 26 22 20 17 15 12 11 15 14 12 9 5 3 3
4 359 357 351 349 348 349 351 358 355 349 346 344 342 340 341 336 335 337 339 347 347 344 345 341 342 340 341 341 339 336 336 346 348 354 91 102 105 108 101 84 109 120 121 126 151 194 246 104 75 96 104 65 106 84 85 54 83 89 82 67 70 65 68 81 77 66 56 49 42 37 31 27 23 20 18 15 15 16 14 10 8 8 7 7
356 355 1 351 349 352 350 358 358 356 347 343 345 341 340 339 344 338 340 342 349 349 345 344 347 348 345 336 334 337 340 339 343 347 6 103 103 100 99 94 95 121 112 111 122 135 159 134 92 96 83 106 86 50 121 68 57 48 71 63 60 72 70 60 82 76 65 55 45 41 39 31 30 25 21 21 17 16 16 13 10 10 10 9 9
359 355 355 347 348 352 353 356 0 355 349 344 344 342 341 339 338 340 343 348 352 350 348 348 348 351 344 337 334 338 343 342 2 6 55 110 103 102 94 98 100 92 110 116 128 141 132 87 85 86 76 44 107 27 92 40 15 22 41 37 49 64 84 103 95 80 65 52 43 43 40 32 26 23 19 19 15 14 15 12 12 10 11 11 7
358 358 354 348 354 350 351 356 359 1 351 346 339 338 341 346 340 342 349 353 353 350 351 352 350 348 350 347 348 350 350 26 34 37 83 90 92 92 90 91 93 90 106 124 133 122 117 84 91 104 91 57 70 88 78 69 53 49 38 47 41 74 100 116 96 91 60 51 48 44 41 34 26 17 16 21 15 15 16 14 12 12 13 12 5
1 356 357 352 357 353 353 355 2 357 349 343 345 340 339 343 344 346 349 354 352 350 353 354 354 354 353 355 355 2 18 38 40 53 65 78 86 91 90 91 94 94 103 111 116 121 116 111 47 68 67 87 22 51 96 55 39 24 56 80 79 73 64 58 78 84 59 53 48 44 41 33 25 18 20 22 18 19 17 16 12 15 14 12 9
3 359 3 360 3 360 357 359 359 355 346 343 349 347 343 343 345 348 352 357 354 351 353 358 360 356 356 359 1 9 18 36 44 50 61 71 74 84 88 87 89 89 76 81 80 80 101 102 88 31 64 64 24 44 138 170 36 54 62 39 50 78 69 65 87 69 59 52 49 43 41 31 25 21 20 22 21 21 19 15 15 15 12 11 6
5 6 5 4 4 359 356 357 0 355 347 346 351 347 342 349 354 353 354 359 355 353 352 360 6 3 2 4 8 15 21 29 40 48 56 63 61 66 77 77 77 74 73 75 77 78 82 64 76 96 53 65 36 21 319 145 125 17 70 78 66 51 80 84 65 57 46 44 40 38 34 28 22 22 20 20 25 23 18 12 16 18 18 14 9
10 6 5 5 3 0 356 356 2 358 349 349 355 355 356 356 354 353 353 359 358 355 357 359 4 8 8 8 9 17 24 24 30 37 53 60 67 68 67 76 80 85 79 76 73 79 83 86 62 66 105 74 57 63 7 338 70 44 97 127 74 54 54 77 91 68 54 55 52 44 38 33 27 26 11 20 25 27 20 12 17 18 19 18 13
12 10 5 1 358 0 359 358 0 1 355 359 3 2 355 350 351 357 357 2 355 359 2 5 3 7 11 12 12 14 23 28 30 29 34 58 71 73 58 78 82 86 88 85 84 86 80 67 60 57 42 62 51 76 41 43 241 110 57 80 85 98 64 46 59 101 59 57 46 35 25 18 17 18 18 27 24 22 17 12 14 18 17 14 16
9 9 2 0 0 1 2 4 4 6 4 4 4 359 354 349 358 2 2 4 1 358 4 7 8 7 10 13 10 10 17 23 27 30 38 45 54 69 65 87 91 96 90 83 99 94 75 79 69 45 35 30 13 6 346 2 17 15 346 80 84 76 106 103 85 39 37 61 63 50 33 17 4 22 22 24 22 19 15 14 12 15 15 13 17
7 3 1 3 5 4 2 4 8 9 10 8 359 357 4 1 355 1 7 11 8 4 6 12 11 10 2 11 9 15 18 18 18 17 26 34 52 58 54 64 103 100 101 106 93 78 71 66 65 72 81 4 312 322 311 322 346 80 103 105 103 128 103 101 102 347 11 330 73 60 42 15 13 29 27 24 18 19 14 16 20 19 13 12 16
5 2 3 5 7 5 8 5 5 12 12 6 358 358 359 2 6 12 14 13 11 11 12 16 16 4 1 359 0 9 12 14 7 6 19 26 38 55 55 52 40 70 121 91 72 91 86 84 53 44 40 315 294 342 328 325 6 184 136 124 129 153 176 174 125 296 207 300 74 67 47 12 5 27 28 24 19 21 16 16 19 20 18 18 20
3 3 8 4 1 4 7 6 11 13 12 6 1 359 1 3 9 12 18 19 17 16 14 14 17 16 5 1 3 6 8 11 8 0 2 17 29 44 50 50 47 41 34 78 125 91 103 112 95 72 92 320 302 304 323 43 58 88 109 146 152 168 167 163 130 134 139 156 99 81 56 10 346 26 34 22 19 24 19 13 19 23 23 23 24
2 9 3 3 7 6 10 9 11 10 13 8 2 2 3 4 4 15 18 22 23 17 13 11 18 20 16 10 4 7 359 6 8 359 355 6 18 39 45 41 39 35 32 28 18 58 144 94 92 59 337 314 354 349 265 185 220 125 171 138 71 46 345 97 138 167 166 165 104 81 64 9 352 21 38 23 18 22 20 16 19 25 25 26 27
7 8 6 10 8 5 8 10 8 10 17 8 5 6 7 6 4 11 19 22 25 22 17 9 17 22 21 17 11 6 2 7 4 355 347 3 14 40 42 41 34 28 30 25 18 25 56 106 121 92 324 238 25 344 18 147 120 182 204 53 112 86 63 52 331 107 117 35 6 126 84 30 348 16 36 24 16 20 20 12 18 24 27 27 27
5 4 3 6 7 7 11 11 12 13 13 11 9 10 9 9 5 13 17 24 26 26 20 16 13 24 23 21 20 11 9 12 12 1 355 2 16 39 47 43 38 36 38 29 10 357 25 58 64 69 43 28 27 24 13 350 357 84 242 169 150 115 109 114 84 70 113 37 37 348 79 50 328 33 38 22 15 18 16 15 18 23 27 27 27
359 358 10 10 10 10 10 14 17 12 9 13 10 11 9 10 11 16 16 21 24 24 24 19 17 22 27 22 20 15 14 17 7 3 5 6 30 34 33 41 26 35 38 25 29 28 33 46 57 63 55 56 55 46 29 19 22 53 88 91 95 103 99 62 61 48 169 167 32 50 98 88 326 39 43 28 22 19 13 16 14 19 23 25 25
1 11 9 8 6 10 11 15 20 13 11 14 10 10 9 11 16 16 16 21 22 24 25 18 17 17 27 28 25 23 20 20 9 7 8 15 35 31 32 35 26 33 24 360 4 38 45 62 61 59 57 52 51 48 41 34 26 355 94 81 72 7 53 67 55 69 38 1 65 74 94 117 287 2 52 36 30 20 14 12 11 14 20 24 24
14 3 12 7 13 14 16 13 19 15 11 15 14 12 12 15 22 20 18 22 26 22 14 19 17 17 21 31 31 27 22 16 7 16 14 21 35 26 21 21 26 23 8 351 346 4 19 46 41 44 40 32 33 40 39 37 33 23 11 47 38 29 46 3 68 23 25 42 67 37 91 93 145 15 4 293 30 28 19 17 11 15 20 20 20
14 347 14 14 15 18 16 13 17 20 15 14 16 13 16 18 22 22 22 28 32 18 11 12 10 15 15 24 28 26 26 16 16 20 21 24 35 26 7 27 29 26 356 336 360 16 22 29 21 26 27 23 25 24 25 31 31 34 40 56 30 11 56 48 71 179 24 67 44 353 337 145 168 56 9 3 56 31 32 23 23 19 20 20 21